Погода в Джексонвилле

США     39°43′23″N   90°13′44″W
темп.,
°C
ветер,
м/с
пор.,
м/с
влажн.,
%
обл.,
%
осадки,
мм/ч
давл.,
гПа
погр.,
м
16 октября, сб
сб1601:00+8зсз410650 0.1 1018201
04:00+7зсз310620 0.0 1019215
07:00+6з311650 0.0 1020239
10:00+11зсз510450 0.0 1021586
13:00+15зсз811320 0.0 10211721
16:00+16сз79300 0.0 10201709
19:00+11зсз34470 0.0 102256
22:00+9з34520 0.0 102361
17 октября, вс
вс1701:00+8з35560 0.0 102379
04:00+7з34580 0.0 102354
07:00+7з35600 0.0 102471
10:00+13з46440 0.0 1024315
13:00+19з56330 0.0 1022968
16:00+20з56330 0.0 10201307
19:00+14юз22500 0.0 102014
22:00+12юз34600 0.0 102154
18 октября, пн
пн1801:00+11юз34640 0.0 102150
04:00+10юз33650 0.0 102138
07:00+9юз33700 0.0 102237
10:00+15ююз35540 0.0 1021293
13:00+21ююз45400 0.0 1020874
16:00+22ююз45370 0.0 10181258
19:00+16ю34540 0.0 101852
22:00+14ююв48600 0.0 1019118
19 октября, вт
вт1901:00+12ю410670 0.0 1019168
04:00+11ю497099 0.0 1019147
07:00+11ю4106896 0.0 1020191
10:00+16ю610490 0.0 1020410
13:00+21ю68350 0.0 1018999
16:00+22ю68330 0.0 10161165
19:00+16ююв410510 0.0 1017170
22:00+15ю614530 0.0 1017324
20 октября, ср
ср2001:00+14ю513600 0.0 1018289
04:00+13ююз411660 0.0 1018217
07:00+12ю512670 0.0 1018223
10:00+18ююз611515 0.0 1018462
13:00+23ююз710465 0.0 10161150
16:00+22юз61063100 0.6 1014837
19:00+18зюз61486100 1.6 1014809
22:00+17зюз512880 0.3 1014532